{"data":{"norad_id":56209,"epoch":"2026-09-21T22:03:56.882304Z","epoch_age_seconds":64507,"freshness":"FRESH","line1":"1 56209U 23054AH  26264.91940836  .00008226  00000+0  13969-3 0  9994","line2":"2 56209  97.2901 174.5882 0008702  58.5411 301.6691 15.51693425193389","mean_motion":15.51693425,"eccentricity":0.0008702,"inclination_deg":97.2901,"raan_deg":174.5882,"arg_perigee_deg":58.5411,"mean_anomaly_deg":301.6691,"bstar":0.00013969,"rev_number":19338,"period_min":92.801836806133,"perigee_km":405.87291222274,"apogee_km":417.69008637892,"semimajor_km":6789.9184993008,"source":"CELESTRAK","updated_at":"2026-09-22T09:00:25.736901Z"}}